| Date | Time | Temp. (oF) | Dew Point (oF) | Rel. Hum. (%) | Press. (in.) | Wind Dir. | Wind Speed (mph) | Hourly Rainfall (in.) |
|
|---|---|---|---|---|---|---|---|---|---|
| 1 | 04/23 | 00:00 | 42 | 41 | 100 | 29.39 | WNW | 12 | 0.00 |
| 2 | 04/22 | 23:00 | 43 | 42 | 100 | 29.43 | NNE | 10 | 0.17 |
| 3 | 04/22 | 22:00 | 44 | 44 | 100 | 29.44 | NNE | 11 | 0.15 |
| 4 | 04/22 | 21:00 | 44 | 44 | 100 | 29.48 | N | 6 | 0.19 |
| 5 | 04/22 | 20:00 | 44 | 44 | 100 | 29.51 | NE | 9 | 0.20 |
| 6 | 04/22 | 19:00 | 45 | 45 | 100 | 29.57 | N | 7 | 0.12 |
| 7 | 04/22 | 18:00 | 46 | 45 | 100 | 29.60 | NE | 13 | 0.12 |
| 8 | 04/22 | 17:00 | 46 | 45 | 100 | 29.64 | NNE | 5 | 0.06 |
| 9 | 04/22 | 16:00 | 46 | 45 | 100 | 29.66 | NE | 7 | 0.05 |
| 10 | 04/22 | 15:00 | 46 | 45 | 100 | 29.70 | NNE | 9 | 0.07 |
| 11 | 04/22 | 14:00 | 46 | 45 | 100 | 29.73 | NE | 12 | 0.05 |
| 12 | 04/22 | 13:00 | 46 | 45 | 100 | 29.75 | N | 3 | 0.04 |
| 13 | 04/22 | 12:00 | 47 | 46 | 98 | 29.78 | NNE | 6 | 0.01 |
| 14 | 04/22 | 11:00 | 47 | 46 | 97 | 29.80 | E | 4 | 0.00 |
| 15 | 04/22 | 10:00 | 46 | 45 | 100 | 29.82 | E | 6 | 0.01 |
| 16 | 04/22 | 09:00 | 45 | 43 | 95 | 29.80 | NNE | 7 | 0.00 |
| 17 | 04/22 | 08:00 | 45 | 43 | 94 | 29.81 | N | 6 | 0.00 |
| 18 | 04/22 | 07:00 | 45 | 43 | 95 | 29.81 | N | 6 | 0.00 |
| 19 | 04/22 | 06:00 | 46 | 45 | 97 | 29.80 | N | 4 | 0.00 |
| 20 | 04/22 | 05:00 | 46 | 45 | 100 | 29.79 | NNE | 6 | 0.00 |
| 21 | 04/22 | 04:00 | 47 | 46 | 100 | 29.79 | NNE | 5 | 0.00 |
| 22 | 04/22 | 03:00 | 49 | 49 | 100 | 29.81 | N | 4 | 0.00 |
| 23 | 04/22 | 02:00 | 50 | 50 | 100 | 29.80 | N | 3 | 0.00 |
| 24 | 04/22 | 01:00 | 51 | 50 | 98 | 29.81 | N | 4 | 0.00 |